Location: Doughton Park
(36.4224°N, 81.1835°W)
Time: 09:42:50
(UTC-04:00)

ISS - All Passes

Search period start: 02 June 2015 00:00
Search period end: 12 June 2015 00:00
Orbit: 398 x 404 km, 51.6° (Epoch: 02 June)

Date Brightness Start Highest point End Pass type
(mag) Time Alt. Az. Time Alt. Az. Time Alt. Az.
02 Jun - 03:33:43 10° NNW 03:36:01 18° NNE 03:38:22 10° ENE visible
02 Jun - 05:09:28 10° WNW 05:12:39 51° SW 05:15:49 10° SSE visible
02 Jun - 20:11:43 10° SSE 20:13:39 15° SE 20:15:41 10° E daylight
02 Jun - 21:46:45 10° WSW 21:49:51 42° NW 21:52:56 10° NE visible
03 Jun - 02:41:10 10° N 02:42:27 12° NNE 02:43:49 10° NE visible
03 Jun - 04:16:09 10° NW 04:19:24 70° NE 04:22:39 10° SE visible
03 Jun - 20:53:17 10° SW 20:56:31 89° SE 20:59:46 10° NE daylight
03 Jun - 22:31:37 10° WNW 22:33:21 13° NNW 22:35:03 10° N visible
04 Jun - 03:23:02 10° NNW 03:26:03 34° NE 03:29:04 10° ESE visible
04 Jun - 04:59:51 10° W 05:02:19 20° SW 05:04:44 10° S visible
04 Jun - 20:00:16 10° SSW 20:03:17 38° SE 20:06:20 10° ENE daylight
04 Jun - 21:37:16 10° W 21:39:48 21° NNW 21:42:21 10° NNE visible
05 Jun - 02:30:07 10° NNW 02:32:36 20° NNE 02:35:06 10° E visible
05 Jun - 04:06:02 10° WNW 04:09:08 42° SW 04:12:14 10° SSE night (unlit)
05 Jun - 19:07:51 10° S 19:10:07 18° SE 19:12:27 10° E daylight
05 Jun - 20:43:20 10° WSW 20:46:21 36° NW 20:49:23 10° NNE daylight
06 Jun - 01:37:26 10° N 01:39:01 13° NNE 01:40:40 10° NE visible
06 Jun - 03:12:37 10° NW 03:15:53 84° NE 03:19:08 10° SE night (unlit)
06 Jun - 19:49:46 10° SW 19:52:59 75° NW 19:56:14 10° NE daylight
06 Jun - 21:28:26 10° NW 21:29:54 12° NNW 21:31:17 10° N visible
07 Jun - 02:19:27 10° NW 02:22:32 39° NE 02:25:37 10° ESE visible
07 Jun - 03:56:32 10° W 03:58:44 17° SW 04:00:51 10° S night (unlit)
07 Jun - 18:56:36 10° SSW 18:59:42 47° SE 19:02:50 10° ENE daylight
07 Jun - 20:33:54 10° WNW 20:36:18 19° NNW 20:38:40 10° NNE daylight
08 Jun - 01:26:26 10° NNW 01:29:04 22° NNE 01:31:43 10° E visible
08 Jun - 03:02:32 10° WNW 03:05:33 35° SW 03:08:32 10° SSE night (unlit)
08 Jun - 18:03:59 10° S 18:06:29 21° SE 18:09:04 10° ENE daylight
08 Jun - 19:39:51 10° W 19:42:47 31° NW 19:45:43 10° NNE daylight
09 Jun - 00:33:39 10° N 00:35:29 14° NNE 00:37:23 10° ENE visible
09 Jun - 02:09:02 10° NW 02:12:16 81° SW 02:15:31 10° SE visible
09 Jun - 17:13:01 10° SE 17:13:19 10° SE 17:13:46 10° ESE daylight
09 Jun - 18:46:10 10° WSW 18:49:22 62° NW 18:52:35 10° NE daylight
09 Jun - 20:25:14 10° NW 20:26:21 11° NNW 20:27:23 10° N daylight
10 Jun - 01:15:46 10° NW 01:18:55 46° NE 01:22:04 10° ESE visible
10 Jun - 02:53:14 10° W 02:55:04 14° SW 02:56:48 10° SSW night (unlit)
10 Jun - 17:52:53 10° SW 17:56:02 57° SE 17:59:14 10° ENE daylight
10 Jun - 19:30:29 10° WNW 19:32:43 17° NNW 19:34:53 10° NNE daylight
11 Jun - 00:22:42 10° NNW 00:25:27 25° NNE 00:28:13 10° E visible
11 Jun - 01:58:59 10° WNW 02:01:51 29° SW 02:04:43 10° SSE night (unlit)
11 Jun - 17:00:04 10° S 17:02:47 25° SE 17:05:33 10° ENE daylight
11 Jun - 18:36:19 10° W 18:39:08 27° NNW 18:41:58 10° NNE daylight
11 Jun - 23:29:49 10° NNW 23:31:52 16° NNE 23:33:58 10° ENE visible
